| time (UTC) | temp F | wind direction | speed MPH | gust MPH | rain 1hr in | rain 24hr in | rain mn in | humidity % | barometer mb |
| 20260905230704 | 49 | 56 | 0.0 | 1.0 | 0.00 | 0.14 | 0.00 | 80 | 1026.0 |
| 20260905225701 | 50 | 57 | 0.0 | 1.0 | 0.00 | 0.14 | 0.00 | 80 | 1026.0 |
| 20260905224719 | 50 | 11 | 0.0 | 2.0 | 0.00 | 0.14 | 0.00 | 81 | 1026.0 |
| 20260905223717 | 51 | 0.0 | 0.0 | 0.00 | 0.14 | 0.00 | 81 | 1026.0 | |
| 20260905222714 | 51 | 338 | 2.0 | 4.0 | 0.00 | 0.14 | 0.00 | 81 | 1025.9 |
| 20260905221712 | 51 | 332 | 1.0 | 2.0 | 0.00 | 0.14 | 0.00 | 81 | 1025.8 |
| 20260905220714 | 52 | 356 | 1.0 | 2.0 | 0.00 | 0.14 | 0.00 | 82 | 1025.6 |
| 20260905215714 | 52 | 329 | 2.0 | 4.0 | 0.00 | 0.14 | 0.14 | 82 | 1025.5 |
| 20260905214712 | 52 | 336 | 3.0 | 4.0 | 0.00 | 0.14 | 0.14 | 83 | 1025.5 |
| 20260905213709 | 53 | 334 | 1.0 | 2.0 | 0.00 | 0.14 | 0.14 | 81 | 1025.4 |
| 20260905212706 | 53 | 334 | 1.0 | 2.0 | 0.00 | 0.14 | 0.14 | 81 | 1025.4 |
| 20260905211704 | 54 | 336 | 1.0 | 3.0 | 0.00 | 0.14 | 0.14 | 81 | 1025.2 |
| 20260905210720 | 54 | 321 | 1.0 | 2.0 | 0.00 | 0.14 | 0.14 | 81 | 1025.2 |
| 20260905205757 | 55 | 314 | 0.0 | 2.0 | 0.00 | 0.14 | 0.14 | 80 | 1025.2 |
| 20260905204714 | 55 | 313 | 0.0 | 1.0 | 0.00 | 0.14 | 0.14 | 80 | 1025.2 |
| 20260905203711 | 56 | 333 | 1.0 | 3.0 | 0.00 | 0.14 | 0.14 | 81 | 1025.2 |
| 20260905202708 | 56 | 357 | 1.0 | 2.0 | 0.00 | 0.14 | 0.14 | 81 | 1025.1 |
| 20260905201705 | 57 | 345 | 1.0 | 2.0 | 0.00 | 0.14 | 0.14 | 80 | 1025.0 |
| 20260905200702 | 57 | 326 | 0.0 | 2.0 | 0.00 | 0.14 | 0.14 | 80 | 1025.0 |
| 20260905195700 | 57 | 317 | 1.0 | 2.0 | 0.00 | 0.14 | 0.14 | 81 | 1024.9 |
| 20260905194717 | 58 | 299 | 1.0 | 3.0 | 0.00 | 0.14 | 0.14 | 81 | 1024.8 |
| 20260905193714 | 58 | 281 | 1.0 | 3.0 | 0.00 | 0.14 | 0.14 | 80 | 1024.7 |
| 20260905192710 | 58 | 276 | 2.0 | 4.0 | 0.00 | 0.14 | 0.14 | 80 | 1024.7 |
| 20260905191707 | 58 | 284 | 2.0 | 6.0 | 0.00 | 0.14 | 0.14 | 80 | 1024.5 |
| 20260905190705 | 59 | 264 | 3.0 | 9.0 | 0.00 | 0.14 | 0.14 | 79 | 1024.4 |
| 20260905185701 | 59 | 274 | 2.0 | 6.0 | 0.00 | 0.14 | 0.14 | 78 | 1024.4 |
| 20260905184719 | 59 | 275 | 3.0 | 8.0 | 0.00 | 0.14 | 0.14 | 77 | 1024.2 |
| 20260905183716 | 59 | 274 | 2.0 | 6.0 | 0.00 | 0.14 | 0.14 | 76 | 1024.2 |
| 20260905182713 | 60 | 261 | 3.0 | 7.0 | 0.00 | 0.14 | 0.14 | 76 | 1024.0 |
| 20260905181712 | 60 | 269 | 4.0 | 10.0 | 0.00 | 0.14 | 0.14 | 75 | 1023.8 |
| 20260905180709 | 60 | 276 | 5.0 | 10.0 | 0.00 | 0.14 | 0.14 | 74 | 1023.6 |
| 20260905175715 | 60 | 272 | 5.0 | 10.0 | 0.00 | 0.14 | 0.14 | 72 | 1023.5 |
| 20260905174721 | 60 | 268 | 5.0 | 9.0 | 0.00 | 0.14 | 0.14 | 71 | 1023.3 |
| 20260905173725 | 61 | 275 | 4.0 | 11.0 | 0.00 | 0.14 | 0.14 | 69 | 1023.2 |
| 20260905172738 | 62 | 278 | 4.0 | 7.0 | 0.00 | 0.14 | 0.14 | 67 | 1023.1 |
| 20260905171711 | 63 | 284 | 4.0 | 9.0 | 0.00 | 0.14 | 0.14 | 65 | 1023.2 |
| 20260905170708 | 64 | 280 | 5.0 | 9.0 | 0.00 | 0.14 | 0.14 | 64 | 1023.1 |
| 20260905165703 | 64 | 283 | 5.0 | 10.0 | 0.00 | 0.14 | 0.14 | 63 | 1023.1 |
| 20260905164659 | 65 | 276 | 5.0 | 14.0 | 0.00 | 0.14 | 0.14 | 62 | 1023.1 |
| 20260905163715 | 65 | 289 | 6.0 | 17.0 | 0.00 | 0.14 | 0.14 | 61 | 1023.0 |
| 20260905162712 | 65 | 272 | 7.0 | 18.0 | 0.00 | 0.14 | 0.14 | 62 | 1023.1 |
| 20260905161709 | 65 | 292 | 5.0 | 9.0 | 0.00 | 0.14 | 0.14 | 62 | 1023.0 |
| 20260905160706 | 65 | 312 | 5.0 | 14.0 | 0.00 | 0.14 | 0.14 | 61 | 1022.8 |
| 20260905155704 | 66 | 257 | 9.0 | 18.0 | 0.00 | 0.14 | 0.14 | 60 | 1022.7 |
| 20260905154700 | 65 | 295 | 6.0 | 11.0 | 0.00 | 0.14 | 0.14 | 61 | 1022.8 |
| 20260905153717 | 66 | 286 | 5.0 | 19.0 | 0.00 | 0.14 | 0.14 | 59 | 1022.6 |
| 20260905152734 | 66 | 280 | 8.0 | 19.0 | 0.00 | 0.14 | 0.14 | 60 | 1022.7 |
| 20260905151731 | 64 | 280 | 5.0 | 9.0 | 0.00 | 0.14 | 0.14 | 62 | 1022.8 |
| 20260905150707 | 65 | 275 | 6.0 | 13.0 | 0.00 | 0.14 | 0.14 | 61 | 1022.6 |
| 20260905145703 | 65 | 305 | 5.0 | 11.0 | 0.00 | 0.14 | 0.14 | 62 | 1022.7 |
| 20260905144720 | 66 | 277 | 6.0 | 13.0 | 0.00 | 0.14 | 0.14 | 59 | 1022.6 |
| 20260905143716 | 67 | 288 | 7.0 | 15.0 | 0.00 | 0.14 | 0.14 | 59 | 1022.5 |
| 20260905142713 | 67 | 300 | 8.0 | 13.0 | 0.00 | 0.14 | 0.14 | 59 | 1022.4 |
| 20260905141710 | 66 | 304 | 7.0 | 14.0 | 0.00 | 0.14 | 0.14 | 61 | 1022.5 |
| 20260905140706 | 67 | 280 | 8.0 | 16.0 | 0.00 | 0.14 | 0.14 | 62 | 1022.5 |
| 20260905135700 | 67 | 283 | 8.0 | 15.0 | 0.00 | 0.14 | 0.14 | 61 | 1022.6 |
| 20260905134717 | 66 | 299 | 6.0 | 13.0 | 0.00 | 0.14 | 0.14 | 63 | 1022.7 |
| 20260905133714 | 66 | 296 | 6.0 | 14.0 | 0.00 | 0.14 | 0.14 | 62 | 1022.7 |
| 20260905132711 | 65 | 310 | 6.0 | 15.0 | 0.00 | 0.14 | 0.14 | 64 | 1022.6 |
| 20260905131728 | 65 | 310 | 8.0 | 17.0 | 0.00 | 0.14 | 0.14 | 66 | 1022.6 |
| 20260905130745 | 66 | 297 | 8.0 | 16.0 | 0.00 | 0.14 | 0.14 | 67 | 1022.6 |
| 20260905125701 | 66 | 306 | 6.0 | 11.0 | 0.00 | 0.14 | 0.14 | 68 | 1022.7 |
| 20260905124718 | 66 | 294 | 7.0 | 15.0 | 0.00 | 0.14 | 0.14 | 67 | 1022.9 |
| 20260905123715 | 66 | 294 | 5.0 | 11.0 | 0.00 | 0.14 | 0.14 | 70 | 1022.9 |
| 20260905122712 | 65 | 274 | 6.0 | 10.0 | 0.00 | 0.14 | 0.14 | 73 | 1023.1 |
| 20260905121728 | 64 | 303 | 5.0 | 10.0 | 0.00 | 0.14 | 0.14 | 77 | 1023.1 |
| 20260905120705 | 63 | 275 | 4.0 | 9.0 | 0.00 | 0.14 | 0.14 | 77 | 1023.2 |
| 20260905115701 | 62 | 280 | 3.0 | 9.0 | 0.00 | 0.14 | 0.14 | 77 | 1023.1 |
| 20260905114718 | 63 | 276 | 5.0 | 11.0 | 0.00 | 0.14 | 0.14 | 75 | 1023.0 |
| 20260905113715 | 61 | 282 | 5.0 | 13.0 | 0.00 | 0.14 | 0.14 | 80 | 1023.0 |
| 20260905112711 | 60 | 266 | 6.0 | 13.0 | 0.00 | 0.14 | 0.14 | 81 | 1023.0 |
| 20260905111708 | 60 | 264 | 5.0 | 13.0 | 0.00 | 0.14 | 0.14 | 80 | 1023.0 |
| 20260905110705 | 60 | 267 | 4.0 | 11.0 | 0.00 | 0.14 | 0.14 | 85 | 1022.9 |
| 20260905105702 | 60 | 270 | 5.0 | 10.0 | 0.00 | 0.14 | 0.14 | 82 | 1022.9 |
| 20260905104658 | 59 | 295 | 3.0 | 8.0 | 0.00 | 0.14 | 0.14 | 87 | 1023.0 |
| 20260905103715 | 58 | 272 | 5.0 | 14.0 | 0.00 | 0.14 | 0.14 | 87 | 1023.1 |
| 20260905102713 | 57 | 283 | 4.0 | 9.0 | 0.00 | 0.14 | 0.14 | 88 | 1023.2 |
| 20260905101709 | 57 | 259 | 6.0 | 10.0 | 0.00 | 0.14 | 0.14 | 87 | 1023.1 |
| 20260905100706 | 57 | 275 | 3.0 | 7.0 | 0.00 | 0.14 | 0.14 | 88 | 1023.2 |
| 20260905095659 | 57 | 269 | 4.0 | 9.0 | 0.00 | 0.14 | 0.14 | 87 | 1023.1 |
| 20260905094716 | 57 | 270 | 5.0 | 10.0 | 0.00 | 0.14 | 0.14 | 89 | 1023.0 |
| 20260905093753 | 57 | 272 | 5.0 | 10.0 | 0.00 | 0.14 | 0.14 | 88 | 1023.0 |
| 20260905092708 | 57 | 263 | 5.0 | 13.0 | 0.00 | 0.14 | 0.14 | 91 | 1022.9 |
| 20260905091705 | 56 | 253 | 5.0 | 9.0 | 0.00 | 0.14 | 0.14 | 92 | 1023.1 |
| 20260905090702 | 55 | 268 | 6.0 | 11.0 | 0.00 | 0.14 | 0.14 | 92 | 1023.1 |
| 20260905085701 | 55 | 251 | 6.0 | 11.0 | 0.01 | 0.14 | 0.14 | 91 | 1023.0 |
| 20260905084719 | 55 | 253 | 6.0 | 11.0 | 0.01 | 0.14 | 0.14 | 91 | 1022.9 |
| 20260905083716 | 55 | 242 | 6.0 | 11.0 | 0.01 | 0.14 | 0.14 | 89 | 1022.8 |
| 20260905082713 | 55 | 249 | 5.0 | 11.0 | 0.01 | 0.14 | 0.14 | 89 | 1023.0 |
| 20260905081709 | 55 | 242 | 5.0 | 9.0 | 0.02 | 0.13 | 0.13 | 88 | 1022.8 |
| 20260905080806 | 56 | 248 | 5.0 | 8.0 | 0.02 | 0.13 | 0.13 | 88 | 1022.7 |
| 20260905075703 | 56 | 243 | 5.0 | 8.0 | 0.02 | 0.13 | 0.13 | 88 | 1022.8 |
| 20260905074700 | 55 | 229 | 4.0 | 7.0 | 0.02 | 0.13 | 0.13 | 88 | 1022.5 |
| 20260905073720 | 55 | 203 | 4.0 | 9.0 | 0.02 | 0.13 | 0.13 | 89 | 1022.3 |
| 20260905072714 | 55 | 220 | 3.0 | 9.0 | 0.03 | 0.13 | 0.13 | 87 | 1022.2 |
| 20260905071711 | 55 | 238 | 4.0 | 7.0 | 0.02 | 0.12 | 0.12 | 86 | 1022.2 |
| 20260905070708 | 55 | 252 | 4.0 | 8.0 | 0.03 | 0.11 | 0.11 | 85 | 1022.3 |
| 20260905065704 | 55 | 238 | 4.0 | 7.0 | 0.02 | 0.11 | 0.11 | 84 | 1022.1 |
| 20260905064700 | 55 | 319 | 1.0 | 1.0 | 0.02 | 0.11 | 0.11 | 84 | 1021.3 |
| 20260905063716 | 55 | 323 | 0.0 | 2.0 | 0.02 | 0.10 | 0.10 | 84 | 1021.5 |
| 20260905062714 | 55 | 317 | 2.0 | 8.0 | 0.06 | 0.10 | 0.10 | 85 | 1021.9 |
| 20260905061711 | 55 | 329 | 6.0 | 10.0 | 0.07 | 0.10 | 0.10 | 87 | 1021.7 |
| 20260905060708 | 55 | 328 | 7.0 | 15.0 | 0.06 | 0.09 | 0.09 | 87 | 1021.0 |
| 20260905055708 | 55 | 338 | 6.0 | 14.0 | 0.06 | 0.09 | 0.09 | 87 | 1021.1 |
| 20260905054704 | 55 | 356 | 4.0 | 7.0 | 0.06 | 0.09 | 0.09 | 85 | 1021.1 |
| 20260905053702 | 56 | 350 | 5.0 | 11.0 | 0.06 | 0.09 | 0.09 | 85 | 1021.0 |
| 20260905052715 | 57 | 338 | 10.0 | 21.0 | 0.04 | 0.04 | 0.04 | 81 | 1021.4 |
| 20260905051714 | 57 | 11 | 6.0 | 13.0 | 0.03 | 0.03 | 0.03 | 79 | 1020.9 |
| 20260905050709 | 57 | 14 | 4.0 | 10.0 | 0.03 | 0.03 | 0.03 | 77 | 1020.5 |
| 20260905045705 | 57 | 36 | 4.0 | 13.0 | 0.03 | 0.03 | 0.03 | 77 | 1020.5 |
| 20260905044701 | 58 | 55 | 3.0 | 7.0 | 0.02 | 0.02 | 0.02 | 76 | 1020.3 |
| 20260905043719 | 58 | 43 | 3.0 | 7.0 | 0.02 | 0.02 | 0.02 | 74 | 1020.5 |
| 20260905042715 | 59 | 11 | 4.0 | 9.0 | 0.00 | 0.00 | 0.00 | 73 | 1020.3 |
| 20260905041712 | 59 | 30 | 4.0 | 9.0 | 0.00 | 0.00 | 0.00 | 72 | 1020.0 |
| 20260905040709 | 60 | 50 | 1.0 | 4.0 | 0.00 | 0.00 | 0.00 | 71 | 1019.4 |
| 20260905035745 | 60 | 36 | 1.0 | 3.0 | 0.00 | 0.00 | 0.00 | 70 | 1019.2 |
| 20260905034722 | 60 | 53 | 3.0 | 7.0 | 0.00 | 0.00 | 0.00 | 68 | 1019.4 |
| 20260905033719 | 60 | 61 | 2.0 | 9.0 | 0.00 | 0.00 | 0.00 | 68 | 1019.2 |
| 20260905032735 | 60 | 33 | 1.0 | 2.0 | 0.00 | 0.00 | 0.00 | 69 | 1019.2 |
| 20260905031712 | 61 | 61 | 2.0 | 6.0 | 0.00 | 0.00 | 0.00 | 69 | 1018.9 |
| 20260905030708 | 61 | 54 | 1.0 | 3.0 | 0.00 | 0.00 | 0.00 | 69 | 1019.0 |
| 20260905025704 | 62 | 58 | 5.0 | 10.0 | 0.00 | 0.00 | 0.00 | 69 | 1019.0 |
| 20260905024700 | 63 | 29 | 4.0 | 7.0 | 0.00 | 0.00 | 0.00 | 68 | 1018.9 |
| 20260905023718 | 65 | 34 | 5.0 | 13.0 | 0.00 | 0.00 | 0.00 | 66 | 1018.8 |
| 20260905022714 | 66 | 331 | 10.0 | 21.0 | 0.00 | 0.00 | 0.00 | 66 | 1018.4 |
| 20260905021711 | 66 | 333 | 3.0 | 6.0 | 0.00 | 0.00 | 0.00 | 63 | 1018.0 |
| 20260905020710 | 66 | 334 | 4.0 | 8.0 | 0.00 | 0.00 | 0.00 | 62 | 1017.8 |
| 20260905015720 | 67 | 328 | 4.0 | 7.0 | 0.00 | 0.00 | 0.00 | 62 | 1017.7 |
| 20260905014734 | 67 | 300 | 2.0 | 6.0 | 0.00 | 0.00 | 0.00 | 62 | 1017.7 |
| 20260905013712 | 67 | 309 | 2.0 | 7.0 | 0.00 | 0.00 | 0.00 | 61 | 1017.8 |
| 20260905012708 | 68 | 308 | 2.0 | 4.0 | 0.00 | 0.00 | 0.00 | 60 | 1017.7 |
| 20260905011705 | 68 | 322 | 3.0 | 7.0 | 0.00 | 0.00 | 0.00 | 60 | 1017.7 |
| 20260905010702 | 68 | 309 | 2.0 | 6.0 | 0.00 | 0.00 | 0.00 | 59 | 1017.8 |
| 20260905005719 | 68 | 302 | 3.0 | 8.0 | 0.00 | 0.00 | 0.00 | 59 | 1017.7 |
| 20260905004716 | 68 | 291 | 3.0 | 6.0 | 0.00 | 0.00 | 0.00 | 59 | 1017.6 |
| 20260905003712 | 68 | 301 | 4.0 | 10.0 | 0.00 | 0.00 | 0.00 | 59 | 1017.5 |
| 20260905002709 | 68 | 283 | 4.0 | 8.0 | 0.00 | 0.00 | 0.00 | 58 | 1017.5 |
| 20260905001704 | 68 | 287 | 4.0 | 8.0 | 0.00 | 0.00 | 0.00 | 59 | 1017.4 |
| 20260905000701 | 68 | 280 | 3.0 | 9.0 | 0.00 | 0.00 | 0.00 | 59 | 1017.4 |
| 20260904235658 | 68 | 282 | 3.0 | 7.0 | 0.00 | 0.00 | 0.00 | 58 | 1017.4 |
| 20260904234715 | 68 | 287 | 3.0 | 8.0 | 0.00 | 0.00 | 0.00 | 58 | 1017.4 |
| 20260904233712 | 68 | 271 | 3.0 | 7.0 | 0.00 | 0.00 | 0.00 | 58 | 1017.5 |
| 20260904232709 | 68 | 279 | 4.0 | 10.0 | 0.00 | 0.00 | 0.00 | 57 | 1017.5 |
| 20260904231705 | 68 | 272 | 4.0 | 10.0 | 0.00 | 0.00 | 0.00 | 57 | 1017.5 |